#timestamp,LO_Frequency,Hit,StdDev 
1637172015.7,286046998.8,N
1637172035.6,286046996.8,N
1637172055.4,286046994.9,Y
1637172075.2,286046999.2,P
1637172095.1,286046997.2,P
1637172096.0,286046997.2,P
1637172115.8,286046998.8,N
1637172135.7,286046999.3,N
1637172155.5,286046998.5,N
1637172175.3,286046999.1,N
1637172195.2,286046998.2,N
1637172215.0,286046998.5,N
1637172215.9,286046998.5,N
1637172235.8,286046998.1,N
1637172255.6,286047001.2,N
1637172275.5,286046998.4,N
1637172295.3,286046998.4,N
1637172315.1,286046997.7,N
1637172335.9,286046997.7,N
1637172355.7,286046998.0,N
1637172375.5,286046995.2,Y
1637172395.4,286046996.9,P
1637172415.2,286046997.1,P
1637172435.1,286046997.6,P
1637172436.0,286046997.6,Y
1637172455.8,286046998.3,P
1637172475.6,286047001.1,N
1637172495.5,286046998.5,N
1637172515.3,286046998.5,N
1637172535.2,286046998.9,N
1637172555.0,286046998.5,N
1637172555.9,286046998.5,N
1637172575.7,286047000.8,N
1637172595.6,286046999.9,N
1637172615.4,286047002.3,N
1637172635.3,286047004.3,Y
1637172655.1,286047004.0,P
1637172675.8,286047004.2,N
1637172695.7,286047004.3,N
1637172715.5,286047001.3,N
1637172735.4,286047001.5,N
1637172755.2,286047004.3,N
1637172775.0,286047003.6,N
1637172775.9,286047003.6,N
1637172795.8,286047001.8,N
1637172815.6,286047000.0,N
1637172835.5,286047002.5,N
1637172855.3,286047002.8,N
1637172875.1,286047002.7,N
1637172895.9,286047002.4,N
1637172915.7,286047001.9,N
1637172935.5,286047001.7,N
1637172955.4,286047002.5,N
1637172975.2,286047002.6,N
1637172995.1,286047002.2,N
1637172996.0,286047002.2,N
1637173015.8,286047000.3,N
1637173035.6,286047000.6,N
1637173055.5,286047000.9,N
1637173075.3,286047000.7,N
1637173095.1,286047000.5,N
1637173115.9,286046999.9,N
1637173135.7,286047000.9,N
1637173155.6,286046999.9,N
1637173175.4,286047000.4,N
1637173195.2,286047002.7,N
1637173215.1,286046999.8,N
1637173216.0,286046999.8,N
1637173235.8,286047000.2,N
1637173255.6,286047000.1,N
1637173275.5,286047000.8,N
1637173295.3,286047001.2,N
1637173315.2,286047000.5,N
1637173335.0,286046999.8,N
1637173335.9,286046999.8,N
1637173355.7,286047000.2,N
1637173375.6,286046999.7,N
1637173395.4,286047001.8,N
1637173415.3,286047002.4,N
1637173435.1,286047002.3,N
1637173455.8,286047000.9,N
1637173475.7,286047000.5,N
1637173495.5,286047000.6,N
1637173515.4,286047002.4,N
1637173535.2,286047000.3,N
1637173555.0,286047002.7,Y
1637173555.9,286047002.7,P
1637173575.8,286047001.2,N
1637173595.6,286046998.6,N
1637173615.5,286046998.3,N
1637173635.3,286046999.0,N
1637173655.1,286047001.2,N
1637173675.9,286047000.8,N
1637173695.7,286046998.2,N
1637173715.5,286047000.7,N
1637173735.4,286046998.2,N
1637173755.2,286046998.2,N
1637173775.1,286046998.9,N
1637173776.0,286046998.9,N
1637173795.8,286046998.2,N
1637173815.6,286046998.2,N
1637173835.5,286046999.5,N
1637173855.3,286046999.5,N
1637173875.2,286046999.6,N
1637173895.9,286046999.3,N
1637173915.1,286046998.9,N
1637173935.9,286046999.5,N
1637173955.7,286046998.6,N
1637173975.6,286046998.2,N
1637173995.4,286046996.7,N
1637174015.2,286046997.3,N
1637174035.1,286046997.0,N
1637174036.0,286046997.0,N
1637174055.8,286046997.6,N
1637174075.6,286046997.3,N
1637174095.5,286046995.1,Y
1637174115.3,286046996.9,P
1637174135.2,286046997.3,N
1637174155.9,286046998.0,N
1637174175.7,286046997.7,Y
1637174195.6,286047001.2,P
1637174215.4,286047000.9,N
1637174235.2,286046999.9,N
1637174255.1,286047001.0,N
1637174256.0,286047001.0,N
1637174275.8,286047000.6,N
1637174295.7,286047001.0,N
1637174315.5,286046998.7,N
1637174335.3,286047000.7,N
1637174355.2,286046999.3,N
1637174375.0,286046999.1,N
1637174375.9,286046999.1,N
1637174395.8,286047001.2,N
1637174415.6,286047002.3,N
1637174435.4,286047002.5,N
1637174455.3,286047002.5,N
1637174475.1,286047000.4,N
1637174495.8,286047000.9,N
1637174515.7,286047000.8,N
1637174535.5,286046998.1,N
1637174555.4,286046998.8,N
1637174575.2,286046998.6,N
1637174595.0,286046998.6,N
1637174595.9,286046998.6,N
1637174615.8,286046999.0,N
1637174635.6,286046999.6,N
1637174655.4,286046999.4,N
1637174675.3,286046998.8,N
1637174695.1,286046998.6,N
1637174715.9,286046998.8,N
1637174735.7,286047000.3,N
1637174755.5,286047000.7,N
1637174775.4,286047000.2,N
1637174795.2,286047000.4,N
1637174815.0,286046999.9,N
1637174815.9,286046999.9,N
1637174835.8,286047000.7,N
1637174855.6,286047000.5,N
1637174875.5,286047000.7,N
1637174895.3,286047000.1,N
1637174915.1,286047000.2,N
1637174935.9,286047000.1,N
1637174955.7,286046999.7,N
1637174975.6,286046999.9,N
1637174995.4,286047000.0,N
1637175015.2,286047000.2,N
1637175035.1,286047000.5,N
1637175036.0,286047000.5,N
1637175055.8,286047000.1,N
1637175075.6,286047000.9,N
1637175095.5,286046998.2,N
1637175115.3,286046999.7,N
1637175135.2,286047002.4,Y
1637175155.9,286047001.6,P
1637175175.7,286047001.8,N
1637175195.6,286047002.0,N
1637175215.4,286047002.8,Y
1637175235.3,286047000.5,P
1637175255.1,286046999.9,N
1637175256.0,286046999.9,N
1637175275.8,286047000.7,N
1637175295.7,286046998.1,Y
1637175315.5,286046996.7,P
1637175335.3,286046996.9,N
1637175355.2,286046998.4,N
1637175375.0,286046998.1,N
1637175375.9,286046998.1,N
1637175395.8,286047000.9,N
1637175415.6,286046999.9,N
1637175435.4,286047000.2,N
1637175455.3,286047000.2,N
1637175475.1,286047002.8,N
1637175495.8,286047000.0,N
1637175515.7,286046999.7,N
1637175535.5,286047002.5,N
1637175555.4,286047002.6,N
1637175575.2,286047000.1,N
1637175595.0,286046999.8,N
1637175595.9,286046999.8,N
